Location: Campavaglio
(41.1333°N, 9.2333°E)
Time: 00:08:46
(UTC+00:00)

ARIANE 5 R/B - Pass Details

Date: 07 June 2020
Orbit: 748 x 795 km, 98.6° (Epoch: 11 July)

Event Time Altitude Azimuth Distance (km) Brightness Sun altitude
Rises 01:14:42 0° 26° (NNE) 3,213 7.3 -20.9°
Reaches altitude 10° 01:17:25 10° 40° (NE) 2,278 6.1 -20.7°
Maximum altitude 01:21:28 24° 95° (E) 1,506 4.2 -20.3°
Enters shadow 01:25:02 12° 145° (SE) 2,123 4.5 -20.0°
